Location: Shenandoah County Park
(38.9356°N, 78.4524°W)
Time: 04:41:45
(UTC-04:00)

Transit 2A - Pass Details

Date: 15 June 2024
Orbit: 591 x 960 km, 66.7° (Epoch: 23 July)

Event Time Altitude Azimuth Distance (km) Brightness Sun altitude
Rises 02:18:30 0° 337° (NNW) 3,512 10.2 -26.0°
Reaches altitude 10° 02:21:07 10° 344° (NNW) 2,611 9.5 -25.8°
Maximum altitude 02:26:55 42° 55° (NE) 1,327 7.5 -25.5°
Drops below altitude 10° 02:32:53 10° 125° (SE) 2,687 8.7 -25.1°
Enters shadow 02:33:36 - 127° (SE) 2,926 8.8 -25.0°
